Погода в Амбролаури

Погода в Амбролаури : погода сейчас, прогноз погоды и архив. Всё, что Вы хотите узнать о погоде в Амбролаури!

Поиск расширенной информации на нашем сайте:

Другие новости

Новости СМИ2

Главная страница сайта

Новости сайта

02.10.2013

Напоминаем, что на нашем новом сайте вы можете получить высокодетализированные прогнозы погоды по пунктам России, СНГ и мира (включающие важные для авиации метеовеличины, такие как направление и скорость ветра, видимость, явления погоды, количество и форма облачности, нижняя и верхняя граница облачности), а также ознакомиться с разнообразными материалами по авиационной метеорологии и подборкой полезных ссылок на эту тему.

Сайт Метеоцентр.Азия посвящён разработке технологий оптимизации авиаметеорологического обслуживания, включая проектирование и перспективное создание нескольких автоматизированных авиаметеорологических систем:
- система выпуска высокодетальных прогностических карт явлений погоды для нижнего воздушного пространства по России и ближнему зарубежью;
- система верификации прогнозов TAF (выпускаемых синоптиками официальных АМСГ РФ и ближнего зарубежья) и AUTOTAF (выпускаемых сайтом Метеоцентр.Азия) - выявление ошибок, онлайн-сопоставление с фактической погодой METAR, автоматическое внесение коррективов в прогнозы при резком отклонении фактической погоды от прогноза, подсчёт оправдываемости прогнозов по элементам и в целом;
- система обработки, анализа и отображения авиаметеорологической информации для применения провайдерами метеорологической информации.

Рекомендуем: Гербалайф белковые батончики.

Погода в Амбролаури - сегодня

Время (UTC), дата Ветер
(°,м/с) 
Видим.   Явления Облачность Т
(°С)
Тd
(°С)
f(%) Тe
(°С)
Pmin
(гПа)
dP
(гПа)
Po
(мм)
O2
(г/м3)
Тmin Tmax R s Состояние
почвы
06 23.05.17 070 (В) 2-2{02}  н/о    н/о 
+12.5 +10.3 86 +16  1013.5  0.9  712  272  +10.8     
09 23.05.17 110 (В) 6-6{06}  н/о    н/о 
+16.4 +11.1 71 +20  1011.7  -0.9  711  268           
12 23.05.17 080 (В) 2-2{04}  н/о    н/о 
+13 +12.3 96 +19  1012.8  0.4  712  271       
18 23.05.17 тихо () -0{02}  н/о    н/о 
+10.3 +9.8 97 +12  1018.9  2.3  716  276    +19.1  17   
21 23.05.17 130 (ЮВ) 1-1{01}  н/о    н/о 
+10.3 +9.8 97 +13  1018.7  -0.2  715  276      0.8     
00 24.05.17 180 (Ю) 1-0{00}  н/о    н/о 
+10.1 +9.7 97 +13  1017.1  -1.6  714  276       
06 24.05.17 280 (З) 1-0{02}  н/о    н/о 
+10.5 +10 97 +14  1017.9  0.7  715  275  +9.9    10   
09 24.05.17 260 (З) 2-1{02}  н/о    н/о 
+11 +9.4 90 +12  1019.3  1.4  716  276         
12 24.05.17 250 (З) 4-3{03}  н/о    н/о 
+13 +9.3 78 +14  1019  0.2  716  274       
18 24.05.17 260 (З) 1-1{02}  н/о    н/о 
+11.4 +9.4 87 +14  1020.8  1.3  717  276    +15.4   
21 24.05.17 030 (СВ) 1-0{01}  н/о    н/о 
+9.3 +8.3 93 +10  1021.8  0.4  717  278           
00 25.05.17 100 (В) 2-1{03}  н/о    н/о 
+7.6 +6.1 90 +8  1022.1  0.1  717  280         
03 25.05.17 090 (В) 2-1{01}  н/о    н/о 
+7.4 +5.7 89 +7  1022.1  717  280           
06 25.05.17 020 (С) 2-1{02}  н/о    н/о 
+14.4 +7.8 65 +15  1019.6  -0.8  717  273  +6.6       
09 25.05.17 240 (ЮЗ) 3-3{03}  н/о    н/о 
+19.1 +6.7 44 +20  1017.1  -1.3  716  268           
12 25.05.17 270 (З) 5-5{05}  н/о    н/о 
+21.8 +5.8 35 +22  1015.9  -0.6  715  266           
15 25.05.17 240 (ЮЗ) 5-4{06}  н/о    н/о 
+20.9 +3.4 32 +21  1015.8  -0.2  715  267    +23       
18 25.05.17 080 (В) 1-1{01}  н/о    н/о 
+10.5 +5.5 71 +12  1020.2  1.9  716  277    +23     
21 25.05.17 090 (В) 3-3{03}  н/о    н/о 
+7.9 +3.7 75 +7  1021.4  0.6  717  280           
00 26.05.17 100 (В) 3-2{03}  н/о    н/о 
+4.9 +2.6 85 +4  1022.6  0.4  717  283         
03 26.05.17 090 (В) 3-2{02}  н/о    н/о 
+6.1 +2.7 79 +5  1022.3  717  282           
06 26.05.17 250 (З) 2-1{03}  н/о    н/о 
+13.2 +4.2 54 +14  1018.5  -2  716  274  +3.9       
09 26.05.17 270 (З) 4-3{04}  н/о    н/о 
+21.5 +9.7 47 +23  1013.3  -3  713  265           
09 27.05.17 290 (З) 3-2{02}  н/о    н/о 
+17.6 +11.4 67 +22  1012.4  -0.2  712  267           
12 27.05.17 200 (Ю) 2-1{04}  н/о    н/о 
+21.1 +12.8 59 +27  1010  -1.5  711  263      0.4   
Время (UTC), дата Ветер
(°,м/с) 
Видим.   Явления Облачность Т
(°С)
Тd
(°С)
f(%) Тe
(°С)
Pmin
(гПа)
dP
(гПа)
Po
(мм)
O2
(г/м3)
Тmin Tmax R s Состояние
почвы

Для получения пояснительной информации подведите курсор к названию столбца.

ПОГОДА в Амбролаури - архив

Всё, что Вы хотите узнать о погоде в Амбролаури - удобно и подробно!

Выберите нужную дату (начиная с 1 января 2015* года) и нажмите кнопку "Найти".
Будут отображены архивные сводки погоды по пункту Амбролаури, начиная с указанной даты.


Отображать данные в формате CSV (для использования в таблицах Excel)


Внимание! Наш архив погоды предназначен исключительно для личного некоммерческого использования в познавательных целях. Если Вам необходимы официальные справки о состоянии погоды (для производственных, юридических, коммерческих и т.п. целей), обращайтесь в органы Росгидромета.

*Примечание: данная дата относится к архиву по метеостанциям СССР (Россия, СНГ, Балтия).
Архив по метеостанциям Зарубежной Европы и Азии (кроме Китая) хранится 10 дней, по другим регионам земного шара (Китай, Африка, Америка, Австралия, Океания) - 1 день.

Амбролаури - район местоположения метеостанции


Название, широта, долгота, высота метеостанции:
Амбролаури 42.5°ш. 43.2°д. 544 м над ур. моря [Грузия]

Дополнительная информация

В oтличие oт бoльшинства пoгoдных сайтoв мы публикуем пoдрoбную метеoинфoрмацию в детальнoм прoфессиoнальнoм фoрмате.

Характеристики температуры и влажнoсти вoздуха измеряются на высoте 2 м в тени вдали oт зданий и деревьев.
Скoрoсть ветра измеряется на высoте 10 м (на урoвне рoста челoвека скoрoсть ветра ниже в 1.5-2 раза). Если метеoстанция нахoдится в гoрoде или в лесу, тo скoрoсть ветра занижена на 2-4 м/с пo сравнению с oткрытым местoм. Скoрoсть ветра над акватoриями крупных рек и oзёр, а также на вершинах хoлмoв на 2-5 м/с выше, чем в oбычных услoвиях.
Атмoсфернoе давление в разных тoчках местнoсти мoжет значительнo oтличаться oт давления на метеoстанции, в зависимoсти oт услoвий рельефа (при пoдъёме на 10 м давление пoнижается примернo на 1 мм рт.ст.).